Location: Sabalos
(43.2860°N, 0.1414°E)
Time: 09:48:47
(UTC+00:00)

NOSS 3-3 (C) - Pass Details

Date: 05 July 2020
Orbit: 824 x 1388 km, 63.4° (Epoch: 03 August)

Event Time Altitude Azimuth Distance (km) Brightness Sun altitude
Rises 22:14:26 0° 227° (SW) 3,400 6.7 -19.4°
Reaches altitude 10° 22:16:50 10° 230° (SW) 2,507 6.0 -19.6°
Maximum altitude 22:22:33 62° 311° (NW) 1,048 4.4 -20.0°
Drops below altitude 10° 22:29:04 10° 32° (NNE) 2,836 6.9 -20.5°
Sets 22:31:55 0° 36° (NE) 3,881 7.6 -20.7°
